User: anonymous   Login
Location: Newark
(22.3060°N, 114.2134°E)
Time: 10:11:23
(UTC+00:00)
Language:

Tiros 1 despin weight - Orbit

View from above orbital plane
View from above orbital plane
View from above satellite
View from above satellite

Ground track
Ground track

The orbit data is extracted from the following two-line orbital elements,

1 00115U 60002D   21211.42934538  .00000036  00000-0  31167-4 0  9991
2 00115  48.1669 112.1312 0034874 248.1310 111.5893 14.83800883252391
Epoch (UTC): 30 July 2021 10:18:15
Eccentricity: 0.0034874
inclination: 48.1669°
perigee height: 593 km
apogee height: 642 km
right ascension of ascending node: 112.1312°
argument of perigee: 248.1310°
revolutions per day: 14.83800883
mean anomaly at epoch: 111.5893°
orbit number at epoch: 25239

The dashed part of the orbit path shows where the satellite is in the earth's shadow,  

DLR